Location: Easthampton
(42.2676°N, 72.6690°W)
Time: 19:51:43
(UTC+00:00)

AO-91 - Pass Details

Date: 05 April 2023
Orbit: 446 x 775 km, 97.6° (Epoch: 30 May)

Event Time Altitude Azimuth Distance (km) Brightness Sun altitude
Rises 04:40:46 0° 354° (N) 3,251 ? -41.7°
Reaches altitude 10° 04:44:08 10° 331° (NNW) 2,337 ? -41.7°
Enters shadow 04:44:55 12° 323° (NW) 2,198 ? -41.7°
